Regional Weather Roundup
Issued by NWS

Home | Current Version | Previous Version | Graphics & Text | Print | Product List | Glossary On
Versions: 1 2 3 4 5 6 7 8 9 10 11 12 13 14 15 16 17 18 19 20 21 22 23 24 25 26 27 28 29 30 31 32 33 34 35 36 37 38 39 40 41 42 43 44 45 46 47 48 49 50
000
ASUS43 KLMK 012010
RWRKY
KENTUCKY REGIONAL WEATHER ROUNDUP
NATIONAL WEATHER SERVICE LOUISVILLE KY
400 PM EDT TUE SEP 01 2015

NOTE "FAIR" INDICATES FEW OR NO CLOUDS BELOW 12,000 FEET
WITH NO SIGNIFICANT WEATHER AND/OR OBSTRUCTIONS TO VISIBILITY.

KYZ001>023-026-027-061>063-070>075-012100-
WESTERN AND SOUTH CENTRAL KENTUCKY

CITY           SKY/WX    TMP DP  RH WIND       PRES   REMARKS
PADUCAH        MOSUNNY   89  67  47 VRB3      30.08F HX  92
HENDERSON      MOSUNNY   90  66  45 S6        30.07F HX  92
OWENSBORO      MOSUNNY   92  68  45 S6        30.09F HX  96
HOPKINSVILLE   PTSUNNY   89  65  43 S6        30.09F HX  91
BOWLING GREEN  SUNNY     91  62  37 SE7       30.09F HX  91
GLASGOW        MOSUNNY   87  62  43 CALM      30.10F
$$

KYZ024-025-028>034-038-045-046-053-012100-
NORTH CENTRAL KENTUCKY

CITY           SKY/WX    TMP DP  RH WIND       PRES   REMARKS
LOUISVILLE/SDF PTSUNNY   89  63  41 NW6       30.09F HX  90
LOUISVILLE/LOU SUNNY     89  64  43 NW3       30.10F HX  90
FORT KNOX      MOSUNNY   89  66  46 W7        30.10R HX  91
$$

KYZ035>037-039>044-047>052-055>060-089>105-012100-
NORTHEAST KENTUCKY

CITY           SKY/WX    TMP DP  RH WIND       PRES   REMARKS
LEXINGTON      MOSUNNY   89  61  38 VRB5      30.12F
COVINGTON      MOSUNNY   88  64  44 VRB6      30.11F
FRANKFORT      PTSUNNY   88  63  43 N5        30.11F
$$

KYZ054-064>069-076>088-106>120-012100-
SOUTHEAST KENTUCKY

CITY           SKY/WX    TMP DP  RH WIND       PRES   REMARKS
JACKSON        MOSUNNY   86  64  47 CALM      30.14F
LONDON         PTSUNNY   89  58  34 NE6       30.13F
SOMERSET       MOSUNNY   84  61  45 SE3       30.13F
MIDDLESBORO    MOSUNNY   88  65  45 SW3       30.12F HX  90
MONTICELLO     PTCLDY    89  68  49 CALM      30.14F HX  92
$$




USA.gov is the U.S. government's official web portal to all federal, state and local government web resources and services.